{"data":{"norad_id":67411,"epoch":"2026-05-25T00:49:49.217952Z","epoch_age_seconds":69095,"freshness":"FRESH","line1":"1 67411U 26005H   26145.03459743  .00006204  00000+0  23475-3 0  9990","line2":"2 67411  43.0026 166.7221 0000905 272.1068  87.9680 15.27585725 20378","mean_motion":15.27585725,"eccentricity":9.05e-5,"inclination_deg":43.0026,"raan_deg":166.7221,"arg_perigee_deg":272.1068,"mean_anomaly_deg":87.968,"bstar":0.00023475,"rev_number":2037,"period_min":94.266395426024,"perigee_km":482.41101759335,"apogee_km":483.65288917391,"semimajor_km":6861.1689533836,"source":"CELESTRAK","updated_at":"2026-05-25T13:38:21.553607Z"}}